カタログに戻る

DEB FREGAT

運用中SSO
NORAD 42833·DEBRIS·🇷🇺 Russia
この衛星名は、まだ公式ソースで確認されていません。

打ち上げ Jul 14, 2017 から Baikonur Cosmodrome

Loading…

次のパス (今後24時間)

TLE

最新Source: Space-Track

元期: Sep 13, 2026, 22:55 UTC

1 42833U 17042J   26256.95524136  .00002859  00000-0  18092-3 0  9997
2 42833  97.4459  57.1991 0007069 141.6208 218.5525 15.09750644500404

AllMySatでDEB FREGATをリアルタイム追跡

Download on the App Store